Regional Weather Roundup
Issued by NWS State College, PA

Home | Current Version | Previous Version | Text Only | Print | Product List | Glossary Off
Versions: 1 2 3 4 5 6 7 8 9 10 11 12 13 14 15 16 17 18 19 20 21 22 23 24 25 26 27 28 29 30 31 32 33 34 35 36 37 38 39 40 41 42 43 44 45 46 47 48 49 50

000
ASUS41 KCTP 300810
RWRCTP

REGIONAL WEATHER ROUNDUP
NATIONAL WEATHER SERVICE STATE COLLEGE PA
400 AM EDT SAT MAY 30 2015

Note: "fair" indicates few or no clouds below 12,000 feet with no
significant weather and/or obstructions to visibility.

* = STATION THAT DOES NOT REPORT PRECIPITATION /E.G. RAIN...SNOW...ETC/
    THUNDER OR FOG.

PAZ002>004-007>009-013>016-020>023-029>032-300900-
WESTERN PENNSYLVANIA

CITY           SKY/WX    TMP DP  RH WIND       PRES   REMARKS
ERIE           MOCLDY    73  63  70 S14       30.02F
MEADVILLE      PTCLDY    68  63  84 VRB5      30.08F
FRANKLIN*      PTCLDY    64  61  88 S8        30.11F
NEW CASTLE     FAIR      69  66  90 CALM      30.09S
BEAVER COUNTY  NOT AVBL
BUTLER*        PTCLDY    66  64  94 S6        30.12S
PITTSBURGH INT MOCLDY    69  64  84 S3        30.10F
PITTSBURGH     CLOUDY    69  61  75 S8        30.10F
INDIANA*       PTCLDY    66  64  94 CALM      30.16S
LATROBE        PTCLDY    70  66  88 S6        30.13S
WASHINGTON CO* PTCLDY    66  63  88 SW3       30.13S
$$

PAZ004>006-010>012-017>019-024>028-033>037-041-042-045-046-049>053-300900-
CENTRAL PENNSYLVANIA

CITY           SKY/WX    TMP DP  RH WIND       PRES   REMARKS
BRADFORD       CLEAR     65  62  90 S5        30.14S
DUBOIS         PTCLDY    67  62  84 S3        30.13F
CLEARFIELD     FOG       63  62  97 CALM      30.14F VSB 3/4
JOHNSTOWN      CLOUDY    66  61  84 S6        30.16F
ALTOONA        CLEAR     66  62  87 CALM      30.16F
STATE COLLEGE  PTCLDY    70  66  86 SW3       30.14S
WILLIAMSPORT   PTCLDY    73  65  75 CALM      30.11F
SELINSGROVE    CLOUDY    73  66  78 S3        30.15S
FT INDIANTOWN  PTCLDY    66  65  99 N1        30.17S
CAPITAL CITY   CLEAR     71  63  75 NE3       30.16S
HARRISBURG     MOCLDY    72  64  76 S7        30.15F
YORK           CLEAR     69  63  81 S3        30.17S
$$

PAZ038>040-043-044-047-048-054-055-060>062-067>071-300900-
EASTERN PENNSYLVANIA

CITY           SKY/WX    TMP DP  RH WIND       PRES   REMARKS
SCRANTON       PTCLDY    70  64  81 N3        30.16S
MOUNT POCONO   CLOUDY    66  62  87 SW9       30.21S
ALLENTOWN      PTCLDY    70  63  78 S3        30.17F
QUAKERTOWN*    MOSUNNY   66  63  88 CALM      30.20S
READING        MOCLDY    69  64  84 S7        30.17S
LANCASTER      MOCLDY    67  65  93 NE6       30.17F
COATESVILLE    MOSUNNY   64  64 100 CALM      30.20F
POTTSTOWN      CLEAR     67  64  90 CALM      30.20F
BLUE BELL      PTCLDY    68  64  88 S3        30.19S
DOYLESTOWN     PTCLDY    64  32  30 S5        30.19S
WILLOW GROVE   NOT AVBL
NORTH PHILA    PTCLDY    70  62  76 CALM      30.21S
PHILADELPHIA   PTCLDY    70  65  84 S6        30.20S
$$


USA.gov is the U.S. government's official web portal to all federal, state and local government web resources and services.